Tracking 19720 objects as of 26-Jun-2019
HD Live streaming from Space Station
objects crossing your sky now

FENGYUN 1C DEB

Track FENGYUN 1C DEB now!
10-day predictions


NORAD ID: 30327
Int'l Code: 1999-025AAN
Perigee: 789.7 km
Apogee: 1,000.8 km
Inclination: 98.4 °
Period: 102.7 minutes
Semi major axis: 7266 km
RCS: 0.0095 m2 (small)
Launch date: May 10, 1999
Source: People's Republic of China (PRC)
Launch site: Taiyaun Space Center, China (TSC)

Note: This is SATELLITE DEBRIS
aabbcc
Your satellite tracking list
Your tracking list is empty




NASA's NSSDC Master Catalog

Two Line Element Set (TLE):
1 30327U 99025AAN 19176.05978851  .00000533  00000-0  34460-3 0  9998
2 30327  98.4000 198.0694 0145266  14.1741   9.4335 14.01648797632504
Source of the keplerian elements: AFSPC